Time,TemperatureF,DewpointF,PressureIn,WindDirection,WindDirectionDegrees,WindSpeedMPH,WindSpeedGustMPH,Humidity,HourlyPrecipIn,Conditions,Clouds,dailyrainin,SoftwareType,DateUTC
2013-01-08 00:00:00,34.9,13.0,27.49,SW,222,8.7,8.7,40,0.00,,---,0.00,VWS V14.01,2013-01-08 08:00:00,
2013-01-08 00:05:00,35.1,13.2,27.49,WSW,243,5.4,10.1,40,0.00,,---,0.00,VWS V14.01,2013-01-08 08:05:00,
2013-01-08 00:10:00,35.1,13.2,27.49,WSW,243,5.8,6.3,40,0.00,,---,0.00,VWS V14.01,2013-01-08 08:10:00,
2013-01-08 00:15:00,35.1,13.2,27.49,SW,224,7.6,8.3,40,0.00,,---,0.00,VWS V14.01,2013-01-08 08:15:00,
2013-01-08 00:20:00,35.1,13.2,27.49,WSW,247,7.6,7.6,40,0.00,,---,0.00,VWS V14.01,2013-01-08 08:20:00,
2013-01-08 00:25:00,35.1,12.6,27.49,SW,222,6.3,8.1,39,0.00,,---,0.00,VWS V14.01,2013-01-08 08:25:00,
2013-01-08 00:30:00,35.1,12.6,27.49,SW,231,11.0,11.0,39,0.00,,---,0.00,VWS V14.01,2013-01-08 08:30:00,
2013-01-08 00:35:00,35.1,12.6,27.49,West,271,7.6,7.6,39,0.00,,---,0.00,VWS V14.01,2013-01-08 08:35:00,
2013-01-08 00:40:00,34.9,13.0,27.49,West,273,2.7,6.3,40,0.00,,---,0.00,VWS V14.01,2013-01-08 08:40:00,
2013-01-08 00:45:00,34.9,13.0,27.49,WSW,246,8.7,8.7,40,0.00,,---,0.00,VWS V14.01,2013-01-08 08:45:00,
2013-01-08 00:50:00,34.9,12.4,27.49,WNW,286,8.3,8.3,39,0.00,,---,0.00,VWS V14.01,2013-01-08 08:50:00,
2013-01-08 00:55:00,34.9,12.4,27.49,WSW,250,5.4,8.3,39,0.00,,---,0.00,VWS V14.01,2013-01-08 08:55:00,
2013-01-08 01:00:00,34.9,11.9,27.49,SW,226,5.8,8.1,38,0.00,,---,0.00,VWS V14.01,2013-01-08 09:00:00,
2013-01-08 01:05:00,35.1,12.0,27.52,SSW,208,6.3,6.3,38,0.00,,---,0.00,VWS V14.01,2013-01-08 09:05:00,
2013-01-08 01:10:00,34.9,11.9,27.52,WSW,244,4.0,7.6,38,0.00,,---,0.00,VWS V14.01,2013-01-08 09:10:00,
2013-01-08 01:15:00,34.9,11.9,27.52,WSW,257,6.3,7.2,38,0.00,,---,0.00,VWS V14.01,2013-01-08 09:15:00,
2013-01-08 01:20:00,34.7,12.9,27.52,SW,223,5.4,8.7,40,0.00,,---,0.00,VWS V14.01,2013-01-08 09:20:00,
2013-01-08 01:25:00,34.9,12.4,27.52,SW,232,7.6,8.3,39,0.00,,---,0.00,VWS V14.01,2013-01-08 09:25:00,
2013-01-08 01:30:00,34.9,11.9,27.52,West,264,6.7,8.7,38,0.00,,---,0.00,VWS V14.01,2013-01-08 09:30:00,
2013-01-08 01:35:00,34.9,12.4,27.52,SW,229,8.3,8.3,39,0.00,,---,0.00,VWS V14.01,2013-01-08 09:35:00,
2013-01-08 01:40:00,34.7,12.3,27.52,WSW,245,7.6,8.3,39,0.00,,---,0.00,VWS V14.01,2013-01-08 09:40:00,
2013-01-08 01:45:00,34.7,12.9,27.52,West,274,8.7,8.7,40,0.00,,---,0.00,VWS V14.01,2013-01-08 09:45:00,
2013-01-08 01:50:00,34.7,12.3,27.52,WSW,248,5.4,5.4,39,0.00,,---,0.00,VWS V14.01,2013-01-08 09:50:00,
2013-01-08 01:55:00,34.5,12.7,27.52,West,260,6.3,8.7,40,0.00,,---,0.00,VWS V14.01,2013-01-08 09:55:00,
2013-01-08 02:00:00,34.5,12.7,27.52,WSW,244,6.3,6.3,40,0.00,,---,0.00,VWS V14.01,2013-01-08 10:00:00,
2013-01-08 02:05:00,34.5,12.7,27.55,WSW,241,4.9,6.3,40,0.00,,---,0.00,VWS V14.01,2013-01-08 10:05:00,
2013-01-08 02:10:00,34.3,12.5,27.55,WSW,253,3.6,3.6,40,0.00,,---,0.00,VWS V14.01,2013-01-08 10:10:00,
2013-01-08 02:15:00,34.2,12.4,27.55,WSW,249,6.3,6.3,40,0.00,,---,0.00,VWS V14.01,2013-01-08 10:15:00,
2013-01-08 02:20:00,34.2,12.4,27.55,SW,230,5.8,5.8,40,0.00,,---,0.00,VWS V14.01,2013-01-08 10:20:00,
2013-01-08 02:25:00,34.2,12.4,27.55,SW,231,5.8,6.3,40,0.00,,---,0.00,VWS V14.01,2013-01-08 10:25:00,
2013-01-08 02:30:00,34.2,12.4,27.55,SW,230,5.8,7.6,40,0.00,,---,0.00,VWS V14.01,2013-01-08 10:30:00,
2013-01-08 02:35:00,34.0,12.2,27.55,SW,228,6.3,7.6,40,0.00,,---,0.00,VWS V14.01,2013-01-08 10:35:00,
2013-01-08 02:40:00,34.0,12.2,27.55,SW,217,5.8,6.3,40,0.00,,---,0.00,VWS V14.01,2013-01-08 10:40:00,
2013-01-08 02:45:00,34.0,12.8,27.55,SW,235,5.8,5.8,41,0.00,,---,0.00,VWS V14.01,2013-01-08 10:45:00,
2013-01-08 02:50:00,33.8,12.6,27.55,SW,224,5.4,6.3,41,0.00,,---,0.00,VWS V14.01,2013-01-08 10:50:00,
2013-01-08 02:55:00,33.8,12.6,27.55,WSW,238,5.4,5.4,41,0.00,,---,0.00,VWS V14.01,2013-01-08 10:55:00,
2013-01-08 03:00:00,33.8,12.6,27.55,SW,216,3.6,5.8,41,0.00,,---,0.00,VWS V14.01,2013-01-08 11:00:00,
2013-01-08 03:05:00,33.8,12.6,27.55,WSW,239,8.3,8.3,41,0.00,,---,0.00,VWS V14.01,2013-01-08 11:05:00,
2013-01-08 03:10:00,33.8,12.6,27.55,SW,226,5.8,5.8,41,0.00,,---,0.00,VWS V14.01,2013-01-08 11:10:00,
2013-01-08 03:15:00,33.8,12.6,27.55,SW,228,4.5,4.5,41,0.00,,---,0.00,VWS V14.01,2013-01-08 11:15:00,
2013-01-08 03:20:00,33.8,12.6,27.55,SW,225,4.0,4.0,41,0.00,,---,0.00,VWS V14.01,2013-01-08 11:20:00,
2013-01-08 03:25:00,33.8,12.6,27.55,SSW,207,5.8,5.8,41,0.00,,---,0.00,VWS V14.01,2013-01-08 11:25:00,
2013-01-08 03:30:00,33.8,12.1,27.55,SW,231,5.4,5.4,40,0.00,,---,0.00,VWS V14.01,2013-01-08 11:30:00,
2013-01-08 03:35:00,33.8,12.1,27.55,SSW,211,2.7,3.6,40,0.00,,---,0.00,VWS V14.01,2013-01-08 11:35:00,
2013-01-08 03:40:00,33.8,12.1,27.55,SSW,200,2.7,3.1,40,0.00,,---,0.00,VWS V14.01,2013-01-08 11:40:00,
2013-01-08 03:45:00,33.8,12.1,27.55,SW,227,6.3,6.3,40,0.00,,---,0.00,VWS V14.01,2013-01-08 11:45:00,
2013-01-08 03:50:00,34.0,12.2,27.58,SSW,198,3.1,3.1,40,0.00,,---,0.00,VWS V14.01,2013-01-08 11:50:00,
2013-01-08 03:55:00,34.0,12.2,27.58,SSW,196,0.0,0.0,40,0.00,,---,0.00,VWS V14.01,2013-01-08 11:55:00,
2013-01-08 04:00:00,33.6,11.9,27.58,South,173,0.0,0.0,40,0.00,,---,0.00,VWS V14.01,2013-01-08 12:00:00,
2013-01-08 04:05:00,33.4,12.3,27.55,SSW,209,2.7,2.7,41,0.00,,---,0.00,VWS V14.01,2013-01-08 12:05:00,
2013-01-08 04:10:00,33.4,12.3,27.55,SW,229,3.6,4.9,41,0.00,,---,0.00,VWS V14.01,2013-01-08 12:10:00,
2013-01-08 04:15:00,33.4,12.3,27.55,SW,219,4.0,5.4,41,0.00,,---,0.00,VWS V14.01,2013-01-08 12:15:00,
2013-01-08 04:20:00,33.4,12.3,27.55,SW,229,3.1,4.0,41,0.00,,---,0.00,VWS V14.01,2013-01-08 12:20:00,
2013-01-08 04:25:00,33.4,12.3,27.55,SW,227,5.4,5.8,41,0.00,,---,0.00,VWS V14.01,2013-01-08 12:25:00,
2013-01-08 04:30:00,33.4,12.3,27.55,SW,221,4.0,4.0,41,0.00,,---,0.00,VWS V14.01,2013-01-08 12:30:00,
2013-01-08 04:35:00,33.4,12.3,27.55,SSW,199,2.7,4.9,41,0.00,,---,0.00,VWS V14.01,2013-01-08 12:35:00,
2013-01-08 04:40:00,33.4,12.3,27.55,SSW,213,4.9,5.4,41,0.00,,---,0.00,VWS V14.01,2013-01-08 12:40:00,
2013-01-08 04:45:00,33.6,12.4,27.55,SSW,200,4.0,4.0,41,0.00,,---,0.00,VWS V14.01,2013-01-08 12:45:00,
2013-01-08 04:50:00,33.6,11.9,27.55,South,181,0.0,0.0,40,0.00,,---,0.00,VWS V14.01,2013-01-08 12:50:00,
2013-01-08 04:55:00,33.6,11.9,27.55,SSE,168,0.0,0.0,40,0.00,,---,0.00,VWS V14.01,2013-01-08 12:55:00,
2013-01-08 05:00:00,33.3,12.1,27.55,SSE,168,0.0,0.0,41,0.00,,---,0.00,VWS V14.01,2013-01-08 13:00:00,
2013-01-08 05:05:00,33.1,12.0,27.58,SSE,168,0.0,0.0,41,0.00,,---,0.00,VWS V14.01,2013-01-08 13:05:00,
2013-01-08 05:10:00,32.9,11.8,27.58,SSE,168,0.0,0.0,41,0.00,,---,0.00,VWS V14.01,2013-01-08 13:10:00,
2013-01-08 05:15:00,32.7,12.2,27.58,SSE,168,2.2,2.2,42,0.00,,---,0.00,VWS V14.01,2013-01-08 13:15:00,
2013-01-08 05:20:00,32.7,12.7,27.58,SSW,201,2.7,3.1,43,0.00,,---,0.00,VWS V14.01,2013-01-08 13:20:00,
2013-01-08 05:25:00,32.7,12.7,27.58,SSW,196,2.7,2.7,43,0.00,,---,0.00,VWS V14.01,2013-01-08 13:25:00,
2013-01-08 05:30:00,32.7,12.2,27.58,South,184,0.0,0.0,42,0.00,,---,0.00,VWS V14.01,2013-01-08 13:30:00,
2013-01-08 05:35:00,32.7,12.2,27.58,South,181,2.7,2.7,42,0.00,,---,0.00,VWS V14.01,2013-01-08 13:35:00,
2013-01-08 05:40:00,32.9,12.3,27.58,SSW,206,0.0,0.0,42,0.00,,---,0.00,VWS V14.01,2013-01-08 13:40:00,
2013-01-08 05:45:00,32.9,12.3,27.58,South,183,0.0,2.2,42,0.00,,---,0.00,VWS V14.01,2013-01-08 13:45:00,
2013-01-08 05:50:00,32.7,12.2,27.58,South,177,0.0,0.0,42,0.00,,---,0.00,VWS V14.01,2013-01-08 13:50:00,
2013-01-08 05:55:00,32.5,12.5,27.58,South,178,0.0,0.0,43,0.00,,---,0.00,VWS V14.01,2013-01-08 13:55:00,
2013-01-08 06:00:00,32.5,12.5,27.58,South,177,0.0,0.0,43,0.00,,---,0.00,VWS V14.01,2013-01-08 14:00:00,
2013-01-08 06:05:00,32.4,12.9,27.58,South,177,0.0,0.0,44,0.00,,---,0.00,VWS V14.01,2013-01-08 14:05:00,
2013-01-08 06:10:00,32.2,12.7,27.58,South,178,0.0,0.0,44,0.00,,---,0.00,VWS V14.01,2013-01-08 14:10:00,
2013-01-08 06:15:00,32.2,13.2,27.58,SSW,206,6.3,6.3,45,0.00,,---,0.00,VWS V14.01,2013-01-08 14:15:00,
2013-01-08 06:20:00,32.2,13.7,27.58,SSW,207,4.0,4.0,46,0.00,,---,0.00,VWS V14.01,2013-01-08 14:20:00,
2013-01-08 06:25:00,32.4,13.4,27.58,SW,216,6.3,6.3,45,0.00,,---,0.00,VWS V14.01,2013-01-08 14:25:00,
2013-01-08 06:30:00,32.5,13.1,27.58,South,177,4.0,4.0,44,0.00,,---,0.00,VWS V14.01,2013-01-08 14:30:00,
2013-01-08 06:35:00,32.5,13.1,27.58,South,188,2.7,2.7,44,0.00,,---,0.00,VWS V14.01,2013-01-08 14:35:00,
2013-01-08 06:40:00,32.5,13.1,27.58,South,182,0.0,0.0,44,0.00,,---,0.00,VWS V14.01,2013-01-08 14:40:00,
2013-01-08 06:45:00,32.4,13.4,27.58,South,182,0.0,0.0,45,0.00,,---,0.00,VWS V14.01,2013-01-08 14:45:00,
2013-01-08 06:50:00,32.4,13.9,27.58,South,182,0.0,0.0,46,0.00,,---,0.00,VWS V14.01,2013-01-08 14:50:00,
2013-01-08 06:55:00,32.4,13.9,27.58,South,182,0.0,0.0,46,0.00,,---,0.00,VWS V14.01,2013-01-08 14:55:00,
2013-01-08 07:00:00,32.2,14.2,27.58,South,182,0.0,0.0,47,0.00,,---,0.00,VWS V14.01,2013-01-08 15:00:00,
2013-01-08 07:05:00,32.2,14.2,27.58,South,187,0.0,3.6,47,0.00,,---,0.00,VWS V14.01,2013-01-08 15:05:00,
2013-01-08 07:10:00,32.2,14.2,27.58,South,173,2.7,2.7,47,0.00,,---,0.00,VWS V14.01,2013-01-08 15:10:00,
2013-01-08 07:15:00,32.4,13.9,27.58,South,184,0.0,0.0,46,0.00,,---,0.00,VWS V14.01,2013-01-08 15:15:00,
2013-01-08 07:20:00,32.2,13.7,27.58,South,184,0.0,2.7,46,0.00,,---,0.00,VWS V14.01,2013-01-08 15:20:00,
2013-01-08 07:25:00,32.2,13.7,27.58,South,183,0.0,0.0,46,0.00,,---,0.00,VWS V14.01,2013-01-08 15:25:00,
2013-01-08 07:30:00,32.2,13.7,27.58,South,183,0.0,0.0,46,0.00,,---,0.00,VWS V14.01,2013-01-08 15:30:00,
2013-01-08 07:35:00,32.4,13.9,27.61,South,178,0.0,0.0,46,0.00,,---,0.00,VWS V14.01,2013-01-08 15:35:00,
2013-01-08 07:40:00,32.4,13.4,27.61,South,178,0.0,0.0,45,0.00,,---,0.00,VWS V14.01,2013-01-08 15:40:00,
2013-01-08 07:45:00,32.5,13.1,27.61,SSE,166,0.0,3.6,44,0.00,,---,0.00,VWS V14.01,2013-01-08 15:45:00,
2013-01-08 07:50:00,32.5,13.1,27.61,South,186,2.2,2.2,44,0.00,,---,0.00,VWS V14.01,2013-01-08 15:50:00,
2013-01-08 07:55:00,32.7,13.2,27.61,South,187,0.0,0.0,44,0.00,,---,0.00,VWS V14.01,2013-01-08 15:55:00,
2013-01-08 08:00:00,32.7,13.7,27.61,SSW,199,3.1,3.1,45,0.00,,---,0.00,VWS V14.01,2013-01-08 16:00:00,
2013-01-08 08:05:00,32.7,13.7,27.61,South,191,0.0,3.1,45,0.00,,---,0.00,VWS V14.01,2013-01-08 16:05:00,
2013-01-08 08:10:00,32.7,13.7,27.61,SSW,195,3.1,3.1,45,0.00,,---,0.00,VWS V14.01,2013-01-08 16:10:00,
2013-01-08 08:15:00,32.7,13.7,27.61,SSW,199,0.0,3.1,45,0.00,,---,0.00,VWS V14.01,2013-01-08 16:15:00,
2013-01-08 08:20:00,32.7,14.2,27.61,South,191,0.0,0.0,46,0.00,,---,0.00,VWS V14.01,2013-01-08 16:20:00,
2013-01-08 08:25:00,32.9,14.4,27.61,SSW,192,3.1,3.1,46,0.00,,---,0.00,VWS V14.01,2013-01-08 16:25:00,
2013-01-08 08:30:00,32.9,14.4,27.61,SW,226,0.0,2.7,46,0.00,,---,0.00,VWS V14.01,2013-01-08 16:30:00,
2013-01-08 08:35:00,32.9,14.9,27.61,SW,215,2.7,2.7,47,0.00,,---,0.00,VWS V14.01,2013-01-08 16:35:00,
2013-01-08 08:40:00,33.1,14.6,27.61,SW,223,2.7,4.0,46,0.00,,---,0.00,VWS V14.01,2013-01-08 16:40:00,
2013-01-08 08:45:00,33.1,14.1,27.61,SSW,204,2.7,2.7,45,0.00,,---,0.00,VWS V14.01,2013-01-08 16:45:00,
2013-01-08 08:50:00,33.4,13.4,27.61,SW,229,5.8,7.6,43,0.00,,---,0.00,VWS V14.01,2013-01-08 16:50:00,
2013-01-08 08:55:00,33.6,13.5,27.61,SW,216,5.8,5.8,43,0.00,,---,0.00,VWS V14.01,2013-01-08 16:55:00,
2013-01-08 09:00:00,33.6,13.5,27.61,SW,227,5.8,6.3,43,0.00,,---,0.00,VWS V14.01,2013-01-08 17:00:00,
2013-01-08 09:05:00,33.8,13.1,27.61,WSW,244,6.3,8.1,42,0.00,,---,0.00,VWS V14.01,2013-01-08 17:05:00,
2013-01-08 09:10:00,33.8,12.6,27.61,SW,221,5.8,7.6,41,0.00,,---,0.00,VWS V14.01,2013-01-08 17:10:00,
2013-01-08 09:15:00,34.0,12.8,27.61,SW,223,5.8,5.8,41,0.00,,---,0.00,VWS V14.01,2013-01-08 17:15:00,
2013-01-08 09:20:00,34.0,12.2,27.61,SW,231,7.6,7.6,40,0.00,,---,0.00,VWS V14.01,2013-01-08 17:20:00,
2013-01-08 09:25:00,34.2,12.4,27.61,SW,233,7.6,8.1,40,0.00,,---,0.00,VWS V14.01,2013-01-08 17:25:00,
2013-01-08 09:30:00,34.2,12.4,27.61,WSW,242,8.3,8.3,40,0.00,,---,0.00,VWS V14.01,2013-01-08 17:30:00,
2013-01-08 09:35:00,34.3,12.5,27.61,West,260,5.4,5.4,40,0.00,,---,0.00,VWS V14.01,2013-01-08 17:35:00,
2013-01-08 09:40:00,34.3,12.5,27.61,WSW,254,4.0,4.0,40,0.00,,---,0.00,VWS V14.01,2013-01-08 17:40:00,
2013-01-08 09:45:00,34.3,12.5,27.61,WSW,237,6.7,6.7,40,0.00,,---,0.00,VWS V14.01,2013-01-08 17:45:00,
2013-01-08 09:50:00,34.3,12.5,27.61,SW,229,2.7,4.0,40,0.00,,---,0.00,VWS V14.01,2013-01-08 17:50:00,
2013-01-08 09:55:00,34.3,13.1,27.61,West,262,5.4,5.4,41,0.00,,---,0.00,VWS V14.01,2013-01-08 17:55:00,
2013-01-08 10:00:00,34.3,13.1,27.61,SW,225,2.7,2.7,41,0.00,,---,0.00,VWS V14.01,2013-01-08 18:00:00,
2013-01-08 10:05:00,34.3,13.1,27.61,SW,218,0.0,3.6,41,0.00,,---,0.00,VWS V14.01,2013-01-08 18:05:00,
2013-01-08 10:10:00,34.3,13.6,27.61,SSW,208,0.0,3.1,42,0.00,,---,0.00,VWS V14.01,2013-01-08 18:10:00,
2013-01-08 10:15:00,34.5,13.8,27.61,SSW,208,0.0,0.0,42,0.00,,---,0.00,VWS V14.01,2013-01-08 18:15:00,
2013-01-08 10:20:00,34.5,14.3,27.61,SSW,208,0.0,0.0,43,0.00,,---,0.00,VWS V14.01,2013-01-08 18:20:00,
2013-01-08 10:25:00,34.5,14.3,27.61,SSW,208,0.0,0.0,43,0.00,,---,0.00,VWS V14.01,2013-01-08 18:25:00,
2013-01-08 10:30:00,34.5,14.9,27.61,SSW,209,0.0,0.0,44,0.00,,---,0.00,VWS V14.01,2013-01-08 18:30:00,
2013-01-08 10:35:00,34.5,14.9,27.61,SSW,209,0.0,0.0,44,0.00,,---,0.00,VWS V14.01,2013-01-08 18:35:00,
2013-01-08 10:40:00,34.5,15.4,27.61,SSW,209,0.0,0.0,45,0.00,,---,0.00,VWS V14.01,2013-01-08 18:40:00,
2013-01-08 10:45:00,34.5,15.9,27.61,SSW,208,0.0,0.0,46,0.00,,---,0.00,VWS V14.01,2013-01-08 18:45:00,
2013-01-08 10:50:00,34.5,16.4,27.61,SSW,209,0.0,0.0,47,0.00,,---,0.00,VWS V14.01,2013-01-08 18:50:00,
2013-01-08 10:55:00,34.5,16.9,27.61,SSW,208,0.0,0.0,48,0.00,,---,0.00,VWS V14.01,2013-01-08 18:55:00,
2013-01-08 11:00:00,34.5,16.9,27.61,SSW,208,0.0,0.0,48,0.00,,---,0.00,VWS V14.01,2013-01-08 19:00:00,
2013-01-08 11:05:00,34.3,16.7,27.58,SSW,207,0.0,0.0,48,0.00,,---,0.00,VWS V14.01,2013-01-08 19:05:00,
2013-01-08 11:10:00,34.3,17.2,27.58,SSW,208,0.0,0.0,49,0.00,,---,0.00,VWS V14.01,2013-01-08 19:10:00,
2013-01-08 11:15:00,34.3,17.2,27.58,SSW,208,0.0,0.0,49,0.00,,---,0.00,VWS V14.01,2013-01-08 19:15:00,
2013-01-08 11:20:00,34.3,17.6,27.58,SSW,207,0.0,0.0,50,0.00,,---,0.00,VWS V14.01,2013-01-08 19:20:00,
2013-01-08 11:25:00,34.3,17.6,27.58,SSW,208,0.0,0.0,50,0.00,,---,0.00,VWS V14.01,2013-01-08 19:25:00,
2013-01-08 11:30:00,34.3,18.1,27.58,SSW,207,0.0,0.0,51,0.00,,---,0.00,VWS V14.01,2013-01-08 19:30:00,
2013-01-08 11:35:00,34.3,18.1,27.58,SSW,192,0.0,0.0,51,0.00,,---,0.00,VWS V14.01,2013-01-08 19:35:00,
2013-01-08 11:40:00,34.3,18.1,27.58,SSW,192,0.0,0.0,51,0.00,,---,0.00,VWS V14.01,2013-01-08 19:40:00,
2013-01-08 11:45:00,34.2,18.4,27.58,SSW,192,0.0,0.0,52,0.00,,---,0.00,VWS V14.01,2013-01-08 19:45:00,
2013-01-08 11:50:00,34.2,18.4,27.58,SE,144,0.0,0.0,52,0.00,,---,0.00,VWS V14.01,2013-01-08 19:50:00,
2013-01-08 11:55:00,34.2,18.4,27.58,SE,129,0.0,0.0,52,0.00,,---,0.00,VWS V14.01,2013-01-08 19:55:00,
2013-01-08 12:00:00,34.3,18.5,27.58,South,171,0.0,0.0,52,0.00,,---,0.00,VWS V14.01,2013-01-08 20:00:00,
2013-01-08 12:05:00,34.2,18.4,27.55,South,182,0.0,0.0,52,0.00,,---,0.00,VWS V14.01,2013-01-08 20:05:00,
2013-01-08 12:10:00,34.0,18.2,27.55,SSE,155,0.0,0.0,52,0.00,,---,0.00,VWS V14.01,2013-01-08 20:10:00,
2013-01-08 12:15:00,34.0,18.2,27.55,ESE,109,0.0,0.0,52,0.00,,---,0.00,VWS V14.01,2013-01-08 20:15:00,
2013-01-08 12:20:00,33.8,18.0,27.55,SE,130,0.0,0.0,52,0.00,,---,0.00,VWS V14.01,2013-01-08 20:20:00,
2013-01-08 12:25:00,33.8,18.5,27.55,SSE,159,0.0,0.0,53,0.00,,---,0.00,VWS V14.01,2013-01-08 20:25:00,
2013-01-08 12:30:00,33.8,18.5,27.55,SSE,152,0.0,0.0,53,0.00,,---,0.00,VWS V14.01,2013-01-08 20:30:00,
2013-01-08 12:35:00,33.8,18.9,27.55,SSE,148,0.0,0.0,54,0.00,,---,0.00,VWS V14.01,2013-01-08 20:35:00,
2013-01-08 12:40:00,33.8,18.9,27.55,SSE,152,0.0,0.0,54,0.00,,---,0.00,VWS V14.01,2013-01-08 20:40:00,
2013-01-08 12:45:00,33.8,18.9,27.55,SSE,151,0.0,0.0,54,0.00,,---,0.00,VWS V14.01,2013-01-08 20:45:00,
2013-01-08 12:50:00,33.8,19.4,27.55,SSE,151,0.0,0.0,55,0.00,,---,0.00,VWS V14.01,2013-01-08 20:50:00,
2013-01-08 12:55:00,33.8,19.4,27.55,SE,135,0.0,0.0,55,0.00,,---,0.00,VWS V14.01,2013-01-08 20:55:00,
2013-01-08 13:00:00,33.6,19.6,27.55,South,176,0.0,0.0,56,0.00,,---,0.00,VWS V14.01,2013-01-08 21:00:00,
2013-01-08 13:05:00,33.8,19.8,27.52,SE,131,0.0,0.0,56,0.00,,---,0.00,VWS V14.01,2013-01-08 21:05:00,
2013-01-08 13:10:00,33.6,20.0,27.52,SSE,159,0.0,0.0,57,0.00,,---,0.00,VWS V14.01,2013-01-08 21:10:00,
2013-01-08 13:15:00,33.6,20.0,27.52,SSE,160,0.0,2.7,57,0.00,,---,0.00,VWS V14.01,2013-01-08 21:15:00,
2013-01-08 13:20:00,33.6,20.0,27.52,South,180,0.0,0.0,57,0.00,,---,0.00,VWS V14.01,2013-01-08 21:20:00,
2013-01-08 13:25:00,33.6,20.4,27.52,South,180,0.0,0.0,58,0.00,,---,0.00,VWS V14.01,2013-01-08 21:25:00,
2013-01-08 13:30:00,33.6,20.4,27.52,SSW,206,0.0,0.0,58,0.00,,---,0.00,VWS V14.01,2013-01-08 21:30:00,
2013-01-08 13:35:00,33.6,20.4,27.52,SSW,209,0.0,0.0,58,0.00,,---,0.00,VWS V14.01,2013-01-08 21:35:00,
2013-01-08 13:40:00,33.8,20.6,27.52,SSW,195,0.0,0.0,58,0.00,,---,0.00,VWS V14.01,2013-01-08 21:40:00,
2013-01-08 13:45:00,33.8,20.6,27.52,SSW,195,0.0,0.0,58,0.00,,---,0.00,VWS V14.01,2013-01-08 21:45:00,
2013-01-08 13:50:00,33.8,20.6,27.52,SSW,196,0.0,0.0,58,0.00,,---,0.00,VWS V14.01,2013-01-08 21:50:00,
2013-01-08 13:55:00,33.8,20.6,27.52,SSW,197,0.0,0.0,58,0.00,,---,0.00,VWS V14.01,2013-01-08 21:55:00,
2013-01-08 14:00:00,33.8,20.2,27.52,SSW,196,0.0,0.0,57,0.00,,---,0.00,VWS V14.01,2013-01-08 22:00:00,
2013-01-08 14:05:00,33.8,20.2,27.52,SSW,198,0.0,0.0,57,0.00,,---,0.00,VWS V14.01,2013-01-08 22:05:00,
2013-01-08 14:10:00,33.8,20.2,27.52,South,191,0.0,0.0,57,0.00,,---,0.00,VWS V14.01,2013-01-08 22:10:00,
2013-01-08 14:15:00,33.8,20.6,27.52,SSE,151,0.0,0.0,58,0.00,,---,0.00,VWS V14.01,2013-01-08 22:15:00,
2013-01-08 14:20:00,33.8,20.6,27.52,South,179,0.0,0.0,58,0.00,,---,0.00,VWS V14.01,2013-01-08 22:20:00,
2013-01-08 14:25:00,33.8,20.6,27.52,SSE,155,0.0,0.0,58,0.00,,---,0.00,VWS V14.01,2013-01-08 22:25:00,
2013-01-08 14:30:00,33.8,20.6,27.52,SSE,154,0.0,0.0,58,0.00,,---,0.00,VWS V14.01,2013-01-08 22:30:00,
2013-01-08 14:35:00,33.6,20.8,27.52,SSE,155,0.0,0.0,59,0.00,,---,0.00,VWS V14.01,2013-01-08 22:35:00,
2013-01-08 14:40:00,33.6,20.8,27.52,SSE,155,0.0,0.0,59,0.00,,---,0.00,VWS V14.01,2013-01-08 22:40:00,
2013-01-08 14:45:00,33.4,20.7,27.52,South,181,0.0,0.0,59,0.00,,---,0.00,VWS V14.01,2013-01-08 22:45:00,
2013-01-08 14:50:00,33.4,20.7,27.49,SE,146,0.0,0.0,59,0.00,,---,0.00,VWS V14.01,2013-01-08 22:50:00,
2013-01-08 14:55:00,33.3,20.5,27.49,SE,136,0.0,0.0,59,0.00,,---,0.00,VWS V14.01,2013-01-08 22:55:00,
2013-01-08 15:00:00,33.3,20.9,27.49,SSE,151,0.0,0.0,60,0.00,,---,0.00,VWS V14.01,2013-01-08 23:00:00,
2013-01-08 15:05:00,33.3,20.9,27.49,SSE,160,0.0,0.0,60,0.00,,---,0.00,VWS V14.01,2013-01-08 23:05:00,
2013-01-08 15:10:00,33.3,21.3,27.49,SSE,164,0.0,0.0,61,0.00,,---,0.00,VWS V14.01,2013-01-08 23:10:00,
2013-01-08 15:15:00,33.3,21.7,27.49,South,178,0.0,0.0,62,0.00,,---,0.00,VWS V14.01,2013-01-08 23:15:00,
2013-01-08 15:20:00,33.4,21.8,27.49,South,183,2.2,2.2,62,0.00,,---,0.00,VWS V14.01,2013-01-08 23:20:00,
2013-01-08 15:25:00,33.4,21.8,27.49,SSW,204,3.1,3.1,62,0.00,,---,0.00,VWS V14.01,2013-01-08 23:25:00,
2013-01-08 15:30:00,33.6,22.4,27.49,South,186,0.0,0.0,63,0.00,,---,0.00,VWS V14.01,2013-01-08 23:30:00,
2013-01-08 15:35:00,33.6,22.4,27.49,SSW,206,0.0,2.7,63,0.00,,---,0.00,VWS V14.01,2013-01-08 23:35:00,
2013-01-08 15:40:00,33.6,22.4,27.49,South,171,0.0,0.0,63,0.00,,---,0.00,VWS V14.01,2013-01-08 23:40:00,
2013-01-08 15:45:00,33.6,22.8,27.49,South,170,2.2,3.1,64,0.00,,---,0.00,VWS V14.01,2013-01-08 23:45:00,
2013-01-08 15:50:00,33.8,22.9,27.46,SW,224,3.6,3.6,64,0.00,,---,0.00,VWS V14.01,2013-01-08 23:50:00,
2013-01-08 15:55:00,33.8,22.9,27.46,South,176,5.8,5.8,64,0.00,,---,0.00,VWS V14.01,2013-01-08 23:55:00,
2013-01-08 16:00:00,33.8,22.9,27.46,SSW,195,0.0,0.0,64,0.00,,---,0.00,VWS V14.01,2013-01-09 00:00:00,
2013-01-08 16:05:00,34.0,23.5,27.46,SSW,196,3.6,3.6,65,0.00,,---,0.00,VWS V14.01,2013-01-09 00:05:00,
2013-01-08 16:10:00,34.2,23.6,27.46,South,174,2.2,3.1,65,0.00,,---,0.00,VWS V14.01,2013-01-09 00:10:00,
2013-01-08 16:15:00,34.3,23.8,27.46,SSW,194,6.3,6.3,65,0.00,,---,0.00,VWS V14.01,2013-01-09 00:15:00,
2013-01-08 16:20:00,34.5,24.0,27.46,South,173,3.6,4.9,65,0.00,,---,0.00,VWS V14.01,2013-01-09 00:20:00,
2013-01-08 16:25:00,34.7,24.5,27.46,SSW,213,2.7,2.7,66,0.00,,---,0.00,VWS V14.01,2013-01-09 00:25:00,
2013-01-08 16:30:00,34.7,24.5,27.46,SSW,197,5.8,8.7,66,0.00,,---,0.00,VWS V14.01,2013-01-09 00:30:00,
2013-01-08 16:35:00,35.1,24.9,27.46,SSW,210,6.3,8.7,66,0.00,,---,0.00,VWS V14.01,2013-01-09 00:35:00,
2013-01-08 16:40:00,35.1,24.9,27.46,SSW,196,3.6,4.9,66,0.00,,---,0.00,VWS V14.01,2013-01-09 00:40:00,
2013-01-08 16:45:00,35.2,25.0,27.46,South,176,4.0,6.3,66,0.00,,---,0.00,VWS V14.01,2013-01-09 00:45:00,
2013-01-08 16:50:00,35.4,25.2,27.46,South,190,5.8,8.3,66,0.00,,---,0.00,VWS V14.01,2013-01-09 00:50:00,
2013-01-08 16:55:00,35.4,25.2,27.46,SSW,206,8.7,9.2,66,0.00,,---,0.00,VWS V14.01,2013-01-09 00:55:00,
2013-01-08 17:00:00,35.4,25.6,27.46,South,185,6.3,8.1,67,0.00,,---,0.00,VWS V14.01,2013-01-09 01:00:00,
2013-01-08 17:05:00,35.4,25.6,27.46,South,178,4.0,7.6,67,0.00,,---,0.00,VWS V14.01,2013-01-09 01:05:00,
2013-01-08 17:10:00,35.4,25.6,27.46,South,179,3.1,3.1,67,0.00,,---,0.00,VWS V14.01,2013-01-09 01:10:00,
2013-01-08 17:15:00,35.6,25.7,27.46,SSW,195,8.1,8.1,67,0.00,,---,0.00,VWS V14.01,2013-01-09 01:15:00,
2013-01-08 17:20:00,35.6,25.7,27.43,SSW,195,5.8,5.8,67,0.00,,---,0.00,VWS V14.01,2013-01-09 01:20:00,
2013-01-08 17:25:00,35.6,25.7,27.43,SSW,198,6.3,10.1,67,0.00,,---,0.00,VWS V14.01,2013-01-09 01:25:00,
2013-01-08 17:30:00,35.6,25.7,27.43,South,184,2.7,8.1,67,0.00,,---,0.00,VWS V14.01,2013-01-09 01:30:00,
2013-01-08 17:35:00,35.8,26.3,27.43,SSW,204,6.7,8.1,68,0.00,,---,0.00,VWS V14.01,2013-01-09 01:35:00,
2013-01-08 17:40:00,35.8,26.3,27.43,SSW,193,6.3,8.7,68,0.00,,---,0.00,VWS V14.01,2013-01-09 01:40:00,
2013-01-08 17:45:00,36.0,26.4,27.43,SSW,211,4.0,8.1,68,0.00,,---,0.00,VWS V14.01,2013-01-09 01:45:00,
2013-01-08 17:50:00,36.1,26.6,27.43,South,171,4.0,8.7,68,0.00,,---,0.00,VWS V14.01,2013-01-09 01:50:00,
2013-01-08 17:55:00,36.1,26.6,27.43,SSW,202,4.0,4.9,68,0.00,,---,0.00,VWS V14.01,2013-01-09 01:55:00,
2013-01-08 18:00:00,36.3,27.1,27.43,SSW,194,8.1,8.1,69,0.00,,---,0.00,VWS V14.01,2013-01-09 02:00:00,
2013-01-08 18:05:00,36.5,27.3,27.43,South,172,3.6,5.8,69,0.00,,---,0.00,VWS V14.01,2013-01-09 02:05:00,
2013-01-08 18:10:00,36.9,27.7,27.43,SSW,193,4.0,7.2,69,0.00,,---,0.00,VWS V14.01,2013-01-09 02:10:00,
2013-01-08 18:15:00,36.9,27.7,27.43,SSW,213,5.4,6.3,69,0.00,,---,0.00,VWS V14.01,2013-01-09 02:15:00,
2013-01-08 18:20:00,36.7,27.5,27.40,South,186,6.3,7.2,69,0.00,,---,0.00,VWS V14.01,2013-01-09 02:20:00,
2013-01-08 18:25:00,36.7,27.5,27.40,SSW,198,6.3,6.3,69,0.00,,---,0.00,VWS V14.01,2013-01-09 02:25:00,
2013-01-08 18:30:00,36.7,27.5,27.40,SSW,194,5.4,8.7,69,0.00,,---,0.00,VWS V14.01,2013-01-09 02:30:00,
2013-01-08 18:35:00,36.7,27.5,27.40,South,189,5.4,7.6,69,0.00,,---,0.00,VWS V14.01,2013-01-09 02:35:00,
2013-01-08 18:40:00,36.7,27.5,27.40,South,179,5.8,10.1,69,0.00,,---,0.00,VWS V14.01,2013-01-09 02:40:00,
2013-01-08 18:45:00,36.9,27.7,27.40,South,170,7.6,8.3,69,0.00,,---,0.00,VWS V14.01,2013-01-09 02:45:00,
2013-01-08 18:50:00,37.0,27.8,27.40,SSW,199,5.8,11.0,69,0.00,,---,0.00,VWS V14.01,2013-01-09 02:50:00,
2013-01-08 18:55:00,37.0,27.8,27.40,SSW,200,5.4,7.6,69,0.00,,---,0.00,VWS V14.01,2013-01-09 02:55:00,
2013-01-08 19:00:00,37.0,27.8,27.40,SSW,196,6.3,7.6,69,0.00,,---,0.00,VWS V14.01,2013-01-09 03:00:00,
2013-01-08 19:05:00,37.2,28.0,27.40,SSW,208,11.0,13.2,69,0.00,,---,0.00,VWS V14.01,2013-01-09 03:05:00,
2013-01-08 19:10:00,37.2,28.0,27.40,SSW,204,8.7,8.7,69,0.00,,---,0.00,VWS V14.01,2013-01-09 03:10:00,
2013-01-08 19:15:00,37.0,27.8,27.40,South,184,4.0,8.7,69,0.00,,---,0.00,VWS V14.01,2013-01-09 03:15:00,
2013-01-08 19:20:00,37.0,27.8,27.40,SSE,165,5.8,7.6,69,0.00,,---,0.00,VWS V14.01,2013-01-09 03:20:00,
2013-01-08 19:25:00,37.0,27.8,27.40,SSW,207,3.1,5.8,69,0.00,,---,0.00,VWS V14.01,2013-01-09 03:25:00,
2013-01-08 19:30:00,37.2,28.0,27.40,SSW,194,3.6,5.4,69,0.00,,---,0.00,VWS V14.01,2013-01-09 03:30:00,
2013-01-08 19:35:00,37.2,28.0,27.37,SSW,194,4.0,4.9,69,0.00,,---,0.00,VWS V14.01,2013-01-09 03:35:00,
2013-01-08 19:40:00,37.0,27.5,27.37,SSW,207,4.0,4.0,68,0.00,,---,0.00,VWS V14.01,2013-01-09 03:40:00,
2013-01-08 19:45:00,37.0,27.1,27.37,SSW,202,9.6,9.6,67,0.00,,---,0.00,VWS V14.01,2013-01-09 03:45:00,
2013-01-08 19:50:00,37.0,26.8,27.37,South,183,2.2,4.0,66,0.00,,---,0.00,VWS V14.01,2013-01-09 03:50:00,
2013-01-08 19:56:00,36.9,26.2,27.37,South,177,2.7,5.8,65,0.00,,---,0.00,VWS V14.01,2013-01-09 03:56:00,
2013-01-08 20:01:00,36.9,25.8,27.37,SSW,198,5.4,5.4,64,0.00,,---,0.00,VWS V14.01,2013-01-09 04:01:00,
2013-01-08 20:06:00,36.9,25.8,27.37,SSW,193,6.3,6.3,64,0.00,,---,0.00,VWS V14.01,2013-01-09 04:06:00,
2013-01-08 20:11:00,37.0,25.6,27.37,SSW,192,5.8,5.8,63,0.00,,---,0.00,VWS V14.01,2013-01-09 04:11:00,
2013-01-08 20:16:00,37.2,25.8,27.37,South,189,6.3,6.3,63,0.00,,---,0.00,VWS V14.01,2013-01-09 04:16:00,
2013-01-08 20:21:00,37.4,25.2,27.37,South,184,3.6,5.8,61,0.00,,---,0.00,VWS V14.01,2013-01-09 04:21:00,
2013-01-08 20:26:00,37.6,24.6,27.37,South,191,5.4,8.3,59,0.00,,---,0.00,VWS V14.01,2013-01-09 04:26:00,
2013-01-08 20:31:00,37.8,24.3,27.37,SSW,199,5.8,5.8,58,0.00,,---,0.00,VWS V14.01,2013-01-09 04:31:00,
2013-01-08 20:36:00,37.8,23.5,27.37,SSW,201,5.4,5.4,56,0.00,,---,0.00,VWS V14.01,2013-01-09 04:36:00,
2013-01-08 20:41:00,37.6,22.5,27.37,SSW,199,5.4,7.2,54,0.00,,---,0.00,VWS V14.01,2013-01-09 04:41:00,
2013-01-08 20:46:00,37.6,22.0,27.37,SSW,194,5.4,5.4,53,0.00,,---,0.00,VWS V14.01,2013-01-09 04:46:00,
2013-01-08 20:51:00,37.4,21.4,27.37,SSW,202,5.8,5.8,52,0.00,,---,0.00,VWS V14.01,2013-01-09 04:51:00,
2013-01-08 20:56:00,37.0,21.5,27.37,SSW,195,7.6,7.6,53,0.00,,---,0.00,VWS V14.01,2013-01-09 04:56:00,
2013-01-08 21:05:00,36.9,20.9,27.37,SSW,203,3.1,3.1,52,0.00,,---,0.00,VWS V14.01,2013-01-09 05:05:00,
2013-01-08 21:10:00,37.0,21.1,27.37,SSW,194,8.7,8.7,52,0.00,,---,0.00,VWS V14.01,2013-01-09 05:10:00,
2013-01-08 21:15:00,37.6,20.6,27.37,SSW,195,6.3,7.6,50,0.00,,---,0.00,VWS V14.01,2013-01-09 05:15:00,
2013-01-08 21:20:00,37.8,20.3,27.37,SW,222,7.6,7.6,49,0.00,,---,0.00,VWS V14.01,2013-01-09 05:20:00,
2013-01-08 21:25:00,38.1,19.7,27.37,SW,215,12.3,12.3,47,0.00,,---,0.00,VWS V14.01,2013-01-09 05:25:00,
2013-01-08 21:30:00,38.1,19.7,27.37,South,185,10.5,10.5,47,0.00,,---,0.00,VWS V14.01,2013-01-09 05:30:00,
2013-01-08 21:35:00,38.1,19.7,27.37,SSW,195,7.6,7.6,47,0.00,,---,0.00,VWS V14.01,2013-01-09 05:35:00,
2013-01-08 21:40:00,38.1,19.7,27.37,SSW,194,7.6,7.6,47,0.00,,---,0.00,VWS V14.01,2013-01-09 05:40:00,
2013-01-08 21:45:00,38.1,19.2,27.37,South,185,5.8,5.8,46,0.00,,---,0.00,VWS V14.01,2013-01-09 05:45:00,
2013-01-08 21:50:00,38.1,18.7,27.37,SSW,211,7.2,7.2,45,0.00,,---,0.00,VWS V14.01,2013-01-09 05:50:00,
2013-01-08 21:55:00,38.1,18.7,27.37,SSE,166,7.6,7.6,45,0.00,,---,0.00,VWS V14.01,2013-01-09 05:55:00,
2013-01-08 22:00:00,38.5,18.5,27.37,SW,218,8.7,11.0,44,0.00,,---,0.00,VWS V14.01,2013-01-09 06:00:00,
2013-01-08 22:05:00,38.7,18.1,27.37,SSW,208,11.0,11.0,43,0.00,,---,0.00,VWS V14.01,2013-01-09 06:05:00,
2013-01-08 22:10:00,38.8,17.7,27.37,SW,219,8.3,11.9,42,0.00,,---,0.00,VWS V14.01,2013-01-09 06:10:00,
2013-01-08 22:15:00,39.0,17.9,27.37,South,188,10.1,10.1,42,0.00,,---,0.00,VWS V14.01,2013-01-09 06:15:00,
2013-01-08 22:20:00,39.2,17.5,27.37,SSW,207,10.5,12.8,41,0.00,,---,0.00,VWS V14.01,2013-01-09 06:20:00,
2013-01-08 22:25:00,39.2,17.5,27.37,SSW,196,10.1,10.1,41,0.00,,---,0.00,VWS V14.01,2013-01-09 06:25:00,
2013-01-08 22:30:00,39.4,17.1,27.37,SSW,197,12.8,12.8,40,0.00,,---,0.00,VWS V14.01,2013-01-09 06:30:00,
2013-01-08 22:35:00,39.7,17.4,27.37,SSW,194,10.1,10.1,40,0.00,,---,0.00,VWS V14.01,2013-01-09 06:35:00,
2013-01-08 22:40:00,39.7,17.4,27.37,SSW,194,6.3,8.1,40,0.00,,---,0.00,VWS V14.01,2013-01-09 06:40:00,
2013-01-08 22:45:00,39.7,16.8,27.37,SSW,210,13.2,13.2,39,0.00,,---,0.00,VWS V14.01,2013-01-09 06:45:00,
2013-01-08 22:50:00,39.4,17.1,27.37,SSW,206,8.1,8.3,40,0.00,,---,0.00,VWS V14.01,2013-01-09 06:50:00,
2013-01-08 22:55:00,39.0,16.8,27.37,SSW,192,3.1,3.1,40,0.00,,---,0.00,VWS V14.01,2013-01-09 06:55:00,
2013-01-08 23:00:00,38.8,16.6,27.37,South,185,7.6,7.6,40,0.00,,---,0.00,VWS V14.01,2013-01-09 07:00:00,
2013-01-08 23:05:00,38.8,16.6,27.37,SW,220,8.3,10.1,40,0.00,,---,0.00,VWS V14.01,2013-01-09 07:05:00,
2013-01-08 23:10:00,38.8,16.6,27.37,SSW,195,5.8,8.3,40,0.00,,---,0.00,VWS V14.01,2013-01-09 07:10:00,
2013-01-08 23:15:00,38.8,16.6,27.37,SSW,208,5.8,10.1,40,0.00,,---,0.00,VWS V14.01,2013-01-09 07:15:00,
2013-01-08 23:20:00,39.2,16.3,27.37,South,180,8.3,10.1,39,0.00,,---,0.00,VWS V14.01,2013-01-09 07:20:00,
2013-01-08 23:25:00,39.7,16.8,27.37,SSW,195,6.7,6.7,39,0.00,,---,0.00,VWS V14.01,2013-01-09 07:25:00,
2013-01-08 23:30:00,39.7,16.8,27.37,SSW,204,16.8,16.8,39,0.00,,---,0.00,VWS V14.01,2013-01-09 07:30:00,
2013-01-08 23:35:00,39.7,16.8,27.37,SW,223,12.3,12.3,39,0.00,,---,0.00,VWS V14.01,2013-01-09 07:35:00,
2013-01-08 23:40:00,39.9,17.0,27.37,SSW,200,10.1,10.1,39,0.00,,---,0.00,VWS V14.01,2013-01-09 07:40:00,
2013-01-08 23:45:00,40.1,17.1,27.37,SSW,194,11.0,11.0,39,0.00,,---,0.00,VWS V14.01,2013-01-09 07:45:00,
2013-01-08 23:50:00,39.7,16.8,27.37,SSW,192,7.6,11.0,39,0.00,,---,0.00,VWS V14.01,2013-01-09 07:50:00,
2013-01-08 23:55:00,40.1,16.5,27.37,SSW,201,8.7,10.1,38,0.00,,---,0.00,VWS V14.01,2013-01-09 07:55:00,